Location: Bodest
(46.3000°N, 22.5667°E)
Time: 21:28:01
(UTC+00:00)

Gbstr 26 Del rocket - Pass Details

Date: 16 October 2021
Orbit: 492 x 1263 km, 51.8° (Epoch: 29 November)

Event Time Altitude Azimuth Distance (km) Brightness Sun altitude
Rises 17:48:35 0° 297° (WNW) 3,826 8.4 -22.7°
Reaches altitude 10° 17:51:07 10° 297° (WNW) 2,963 7.5 -23.1°
Maximum altitude 17:58:32 85° 210° (SSW) 1,222 4.4 -24.4°
Enters shadow 18:01:27 44° 126° (SE) 1,651 4.7 -24.8°
